Powrót do katalogu

DELTA 1 DEB

AktywnySSO
NORAD 21285·DEBRIS·🇺🇸 United States

Wystrzelony Jun 12, 1975 z Vandenberg Space Force Base

Loading…

Następne Przeloty (najbliższe 24 godziny)

TLE

ŚwieżeSource: Space-Track

Epoka: Sep 14, 2026, 10:21 UTC

1 21285U 75052W   26257.43145929 -.00000015  00000-0  48092-4 0  9990
2 21285  99.6265 103.2501 0020259 108.4104  10.4025 13.41286699730501

Śledź DELTA 1 DEB w czasie rzeczywistym z AllMySat

Download on the App Store